Regional Weather Roundup
Issued by NWS Upton, NY

Current Version | Previous Version | Graphics & Text | Print | Product List | Glossary Off
Versions: 1 2 3 4 5 6 7 8 9 10 11 12 13 14 15 16 17 18 19 20 21 22 23 24 25 26 27 28 29 30 31 32 33 34 35 36 37 38 39 40 41 42 43 44 45 46 47 48 49 50

000
ASUS41 KOKX 252305
RWROKX

REGIONAL WEATHER ROUNDUP
NATIONAL WEATHER SERVICE NEW YORK NY
600 PM EST SUN JAN 25 2015

NOTE: "FAIR" INDICATES FEW OR NO CLOUDS BELOW 12,000 FEET WITH NO
SIGNIFICANT WEATHER AND/OR OBSTRUCTIONS TO VISIBILITY.

NYZ071-072-176-178-NJZ106-104-260000-
NEW YORK CITY METRO AREA


CITY           SKY/WX    TMP DP  RH WIND       PRES   REMARKS
CENTRAL PARK   CLEAR     37   7  28 NW5       29.90R WCI  33
LAGUARDIA APRT MOCLDY    36   9  32 NW13      29.88R WCI  27
KENNEDY INTL   MOCLDY    38   8  29 N14       29.88R WCI  30
NEWARK/LIBERTY MOCLDY    36  15  42 N12       29.88R WCI  28
BRNX BOT. GARD   N/A    N/A N/A N/A W6        29.89R
TETERBORO      PTCLDY    35   7  31 NW5       29.88R WCI  31
$$

NYZ177-179-078>081-260000-
LONG ISLAND NEW YORK

CITY           SKY/WX    TMP DP  RH WIND       PRES   REMARKS
FARMINGDALE    CLEAR     36   9  32 NW10      29.88R WCI  28
ISLIP          MOCLDY    35  11  36 NW10      29.86R WCI  27
SHIRLEY        CLEAR     33  13  43 NW6       29.89R WCI  28
WESTHAMPTON    PTCLDY    30  14  51 W6        29.89R WCI  24
MONTAUK POINT    N/A     36  15  42 NW10      29.87R WCI  28
$$

NYZ052-065-067-260000-
HUDSON VALLEY

CITY           SKY/WX    TMP DP  RH WIND       PRES   REMARKS
WHITE PLAINS   PTCLDY    32  10  40 NW6       29.85R WCI  26
NEWBURGH       MOCLDY    28  14  54 W12       29.88R WCI  18
MONTGOMERY     MOCLDY    30   6  36 NW9       29.87R WCI  22
POUGHKEEPSIE   CLOUDY    31   8  38 N3        29.88R
ALBANY         MOCLDY    20   2  45 NW16G22   29.94R WCI   6
$$

NJZ001-105-106-008-010-013-015-019>022-104-260000-
NEW JERSEY

CITY           SKY/WX    TMP DP  RH WIND       PRES   REMARKS
NEWARK/LIBERTY MOCLDY    36  15  42 N12       29.88R WCI  28
TETERBORO      PTCLDY    35   7  31 NW5       29.88R WCI  31
CALDWELL       PTCLDY    33   8  35 CALM      29.89R
MORRISTOWN     PTCLDY    34  10  37 N7        29.88R WCI  28
SOMERVILLE     MOCLDY    37  16  42 N6        29.86R WCI  32
SUSSEX         MOCLDY    31   6  35 NW7       29.87R WCI  24
ANDOVER          N/A     29  11  47 CALM      29.87R
TRENTON        CLOUDY    39  28  64 CALM      29.86R
MILLVILLE      CLOUDY    44  33  65 CALM      29.86R
ATLANTIC CITY  CLOUDY    43  30  60 CALM      29.86R
WRIGHTSTOWN    MOCLDY    38  30  73 N1        29.85R
TOMS RIVER     MOCLDY    37  30  75 CALM      29.87R
BELMAR         PTCLDY    39  27  60 W3        29.87R
$$

PAZ047>061-062-071-260000-
EASTERN PENNSYLVANIA

CITY           SKY/WX    TMP DP  RH WIND       PRES   REMARKS
PHILADELPHIA   MOCLDY    42  32  67 N6        29.87R
ALLENTOWN      CLOUDY    37  22  54 N5        29.86R WCI  33
SCRANTON       CLOUDY    28   8  43 N8        29.85R WCI  20
$$

CTZ002-004>006-009-010-012-RIZ004-006-007-MAZ004-011-015-260000-
SOUTHERN NEW ENGLAND
 IN CT

CITY           SKY/WX    TMP DP  RH WIND       PRES   REMARKS
BRADLEY INTL   CLOUDY    27   6  41 NW13      29.87R WCI  16
HARTFORD       CLOUDY    30   6  36 NW8       29.88R WCI  22
DANBURY        MOCLDY    29  10  45 W3        29.87R
WTRBRY/OXFORD  MOCLDY    28   7  40 N8        29.84R WCI  20
BRIDGEPORT     FAIR      33  15  47 W9        29.88R WCI  25
MERIDEN        MOCLDY    30  11  45 VRB5      29.88R WCI  25
NEW HAVEN      MOCLDY    35  14  42 NW5       29.87R WCI  31
CHESTER        FAIR      32  12  43 N5        29.86R WCI  27
GROTON         PTCLDY    30  10  43 NW6       29.87R WCI  24
WILLIMANTIC    MOCLDY    29   4  34 N8        29.86R WCI  21

 IN RI

CITY           SKY/WX    TMP DP  RH WIND       PRES   REMARKS
PROVIDENCE     MOCLDY    30   7  37 NW12      29.84R WCI  20
BLOCK ISLAND   PTCLDY    34  10  37 NW10G17   29.85R WCI  26
WESTERLY       PTCLDY    32   9  38 VRB3      29.87R

 IN MA

CITY           SKY/WX    TMP DP  RH WIND       PRES   REMARKS
BOSTON         CLOUDY    31  10  41 NW12      29.82R WCI  22
WORCESTER      MOCLDY    24   4  42 NW10      29.79R WCI  14
WESTFIELD      MOCLDY    24   3  40 NW13      29.86R WCI  12
PROVINCETOWN   NOT AVBL
NANTUCKET      PTCLDY    34  15  46 NW10      29.81R WCI  26
$$

ANZ330-335-338-340-345-350-353-355-260000-
COASTAL MARINE OBSERVATIONS


STATION/POSITION TIME  SKY/WX   TEMP    WIND        PRES    VSBY  WAVE
                                AIR SEA DIR/SP/G                  HT/PER
                 (UTC)          (F)     (DEG/KT/KT) (MB)    (MI)  (FT/S)
NY HARB ENTRANCE 2300            41 42  330/ 12/ 14 1011.1          3/11
4S FIRE IS       2300               39                N/A           4/12
20S FIRE ISLAND  2200               41              1010.7          5/11
23SW MTP         2300                                 N/A           6/11
HUDSON CANYON    NOT AVBL
EXECUTION ROCKS  2300            36 35  300/ 12/ 17   N/A
WESTERN LI SOUND 2300            36     310/  8/ 12   N/A           1
CENTRAL LI SOUND 2200            37 37  290/ 14/ 17   N/A           3/ 4
EASTERN LI SOUND NOT AVBL
ROBBINS REEF     2300            37     360/ 11/ 15 1010.4
$$


>>>>>>>>>>>>>>>>>>>>>>>>>>>> KEY <<<<<<<<<<<<<<<<<<<<<<<<<<<
>                                                          <
>     SKY/WX - SKY CONDITION/PRESENT WEATHER               <
>     TMP    - TEMPERATURE IN FAHRENHEIT                   <
>     DP     - DEWPOINT IN FAHRENHEIT                      <
>     RH     - RELATIVE HUMIDITY IN PERCENT                <
>     WIND   - DIRECTION AND SPEED IN MPH                  <
>     PRES   - MEAN SEA LEVEL PRESSURE IN INCHES OF HG     <
>     WCI    - WIND CHILL INDEX                            <
>     VSB    - VISIBILITY IN MILES                         <
>     HX     - HEAT INDEX                                  <
>     TC     - TEMPERATURE IN CELSIUS                      <
>     VRB    - VARIABLE WIND DIRECTION                     <
>                                                          <
>>>>>>>>>>>>>>>>>>>>>>>>>>>> KEY <<<<<<<<<<<<<<<<<<<<<<<<<<<




USA.gov is the U.S. government's official web portal to all federal, state and local government web resources and services.